sat.trackr.live / text

‹ back to catalog

GPS BIIF-6 (PRN 06)

NORAD 39741 · 2014-026A

PAYLOAD ACTIVE UNKNOWN

§ Identity

Operator
Country
US
Launch date
2014-05-17
Launch site
AFETR
Launch vehicle
Mass (kg)
RCS (m²)
20.52

Purposes: earth_obs, nav

External: N2YO · Heavens-Above · Gunter

§ Orbital elements

Epoch: 2026-09-20T04:39:31.339008Z

Period
718.01 min
Inclination
56.4448°
Eccentricity
0.0039523
Mean motion
2.00554320 rev/d
Perigee alt
20,078.1 km
Apogee alt
20,288.0 km
Semi-major
26,561.2 km
B*
0.0000e+0
RAAN
327.8153°
Arg perigee
324.0995°
Mean anomaly
35.6978°
Rev number
9,044

§ Raw data

GPS BIIF-6  (PRN 06)1 39741U 14026A   26263.19411272 -.00000077  00000+0  00000+0 0  99962 39741  56.4448 327.8153 0039523 324.0995  35.6978  2.00554320 90446

JSON: /api/v1/satellites/39741 · /tle

For live sub-satellite position, see the globe view (requires WebGL).

§ Visibility from observer

Set your observer location to see the next 7 days of passes ≥ 10°. The values pass through the URL so the page stays shareable.

No JS? Fill the form by hand. The geolocation button needs JavaScript.